Regional Weather Roundup
Issued by NWS San Angelo, TX

Home | Current Version | Previous Version | Text Only | Print | Product List | Glossary On
Versions: 1 2 3 4 5 6 7 8 9 10 11 12 13 14 15 16 17 18 19 20 21 22 23 24 25 26 27 28 29 30 31 32 33 34 35 36 37 38 39 40 41 42 43 44 45 46 47 48 49 50
000
ASUS44 KSJT 251411
RWRSJT
WEST CENTRAL TEXAS REGIONAL WEATHER ROUNDUP
NATIONAL WEATHER SERVICE SAN ANGELO TX
900 AM CDT SUN SEP 25 2016

NOTE: "FAIR" INDICATES FEW OR NO CLOUDS BELOW 12,000 FEET WITH NO
SIGNIFICANT WEATHER AND/OR OBSTRUCTIONS TO VISIBILITY.

TXZ049-054-064>066-071>073-076>078-098-099-113-114-127-128-139-140-
154-155-168>170-251500
...LOCATIONS ACROSS WEST CENTRAL TEXAS...

CITY           SKY/WX    TMP DP  RH WIND       PRES   REMARKS
SAN ANGELO     CLOUDY    68  66  93 E8        30.05S
ABILENE        LGT RAIN  66  65  96 SE7       30.06F
DYESS AFB      LGT RAIN  67  64  93 N5        30.05R
JUNCTION       LGT RAIN  67  32  27 E9        30.04F
SWEETWATER     NOT AVBL
BROWNWOOD      LGT RAIN  66  66 100 NE7       30.05R
COLEMAN        RAIN      67  65  93 CALM      30.07R
SONORA         CLOUDY    66  66 100 NE8G15    30.08R
OZONA          RAIN      66  64  94 NE7       30.08R
BRADY          NOT AVBL
$$

TEXAS PANHANDLE/OKLAHOMA PANHANDLE

CITY           SKY/WX    TMP DP  RH WIND       PRES   REMARKS
AMARILLO       CLOUDY    55  47  74 N20G32    30.26R
BORGER         CLOUDY    59  44  57 NE21G29   30.26R
CANADIAN       CLOUDY    58  50  73 N15       30.21R
DALHART        PTSUNNY   54  39  57 N18       30.33R
DUMAS          CLOUDY    55  39  55 N22G32    30.29R
GUYMON         NOT AVBL
HEREFORD       CLOUDY    58  48  71 N24G40    30.25R
PAMPA          CLOUDY    57  48  71 N18G26    30.25R
PERRYTON       MOSUNNY   59  46  60 N23G35    30.24S
$$

SOUTHERN PANHANDLE/SOUTH PLAINS/ROLLING PLAINS

CITY           SKY/WX    TMP DP  RH WIND       PRES   REMARKS
LUBBOCK        PTSUNNY   66  64  93 SE3       30.13R FOG
SNYDER           N/A     66  65  97 CALM      30.07S
CHILDRESS      CLOUDY    68  66  93 SE3       30.12R
SEMINOLE       CLOUDY    65  63  94 CALM      30.13R
$$

PERMIAN BASIN

CITY           SKY/WX    TMP DP  RH WIND       PRES   REMARKS
MIDLAND        CLOUDY    67  62  84 NE5       30.07R
ODESSA         CLOUDY    67  62  84 N3        30.10R
WINK           PTSUNNY   68  61  78 NE7       30.07R
$$

FAR WEST/SOUTHWEST MOUNTAINS/TRANS PECOS

CITY           SKY/WX    TMP DP  RH WIND       PRES   REMARKS
ALPINE         CLOUDY    59  57  95 SW6       30.18F
DRYDEN           N/A     67  67 100 NE8       30.01R
EL PASO        CLOUDY    66  31  27 N14       30.11R
FORT STOCKTON  CLOUDY    66  64  93 SE8       30.07R
GUADALUPE PASS CLOUDY    58  36  43 E33       30.16F
MARFA          LGT RAIN N/A N/A N/A N8        30.17R
PECOS          CLOUDY    68  62  82 NE7       30.07R
$$

DALLAS/FORT WORTH METROPLEX

CITY           SKY/WX    TMP DP  RH WIND       PRES   REMARKS
DFW AIRPORT    LGT RAIN  74  70  87 N6        30.01R
FTW MEACHAM    RAIN      72  69  90 NW7       30.04R FOG
DAL-EXECUTIVE  CLOUDY    77  75  93 SE7       30.01S
GRAND PRAIRIE  CLOUDY    75  75 100 SE6       30.03R
ADDISON        CLOUDY    73  73 100 N7        30.02S VSB 1
MESQUITE       CLOUDY    75  75 100 SE5       30.02R
LANCASTER      CLOUDY    76  73  91 SE6       30.03R FOG
$$

NORTH CENTRAL TEXAS

CITY           SKY/WX    TMP DP  RH WIND       PRES   REMARKS
SHRMAN/DENISON CLOUDY    72  72 100 E8        30.05S
GAINESVILLE    LGT RAIN  69  68  96 N3        30.07S
BRIDGEPORT     RAIN      70  70 100 E5        30.07R
DENTON         RAIN      70  69  97 N8        30.04R FOG
WAXAHACHIE     CLOUDY    76  76  99 SE5       30.03S FOG
GRANBURY       RAIN      72  70  92 CALM      30.06R
$$

WESTERN NORTH TEXAS

CITY           SKY/WX    TMP DP  RH WIND       PRES   REMARKS
WICHITA FALLS  CLOUDY    69  68  96 CALM      30.06S
VERNON         CLOUDY    71  67  87 N3        30.09R
BRECKENRIDGE   PTSUNNY   70  69  98 W3        30.06R
COMANCHE       LGT RAIN  67  67 100 CALM      30.05R
$$

CENTRAL AND SOUTH CENTRAL TEXAS

CITY           SKY/WX    TMP DP  RH WIND       PRES   REMARKS
AUSTIN/BERGSTM CLOUDY    76  74  93 CALM      29.98R
WACO           CLOUDY    76  75  97 SE8       30.00R
HILLSBORO      CLOUDY    74  73  96 E7        30.01S FOG
TEMPLE         CLOUDY    75  75 100 SE9       30.00R
KILLEEN-GRAY   TSTM      68  68 100 VRB5      30.02R VSB 5/8
FORT HOOD      HVY RAIN  68  68 100 W17       30.00R VSB 5/8
GEORGETOWN     PTSUNNY   77  73  88 S7        29.99R
LAGO VISTA     CLOUDY    76  74  92 NW13G20   30.02R
SAN MARCOS     PTSUNNY   75  73  94 MISG      30.00S FOG
NEW BRAUNFELS  LGT RAIN  77  75  93 NE3       29.96F FOG
RANDOLPH AFB   CLOUDY    77  77 100 E6        29.97F
SAN ANTONIO    CLOUDY    77  74  90 E9        29.98S
STINSON        PTSUNNY   79  75  87 E6        29.94F
PLEASANTON     NOT AVBL
LA GRANGE      MOSUNNY   80  77  92 S7        29.95F
GIDDINGS       PTSUNNY   77  74  92 SE5       30.01F
$$

EAST TEXAS

CITY           SKY/WX    TMP DP  RH WIND       PRES   REMARKS
PARIS          PTSUNNY   75  70  83 SE3       30.06R
CLARKSVILLE    NOT AVBL
TYLER          CLOUDY    77  74  90 SE7       30.04R
LONGVIEW       MOSUNNY   74  73  97 SE7       30.03S
PALESTINE      CLOUDY    76  76  99 CALM      30.03R
NACOGDOCHES    CLOUDY    75  73  94 E6        30.02S
$$

TEXAS HILL COUNTRY AND EDWARDS PLATEAU

CITY           SKY/WX    TMP DP  RH WIND       PRES   REMARKS
LLANO          CLOUDY    70  70 100 CALM      30.07S
HORSESHOE BAY  CLOUDY    69  67  94 NW5       30.04S
KERRVILLE      CLOUDY    74  72  93 NE7       30.01S
FREDERICKSBRG  CLOUDY    67  65  92 NE10      30.04S
ROCKSPRINGS    HVY RAIN  66  64  94 NE13G22   30.02F
HONDO          CLOUDY    79  75  87 SE13      29.96S
UVALDE         CLOUDY    76  73  91 SE12G18   29.93S
DEL RIO        RAIN      69  69 100 N9        29.96R FOG
$$

SOUTHEAST TEXAS

CITY           SKY/WX    TMP DP  RH WIND       PRES   REMARKS
COLLEGE STN    MOSUNNY   78  76  93 SE8       29.99S
CALDWELL       NOT AVBL
CROCKETT       NOT AVBL
BRENHAM        MOSUNNY   77  77  98 E3        29.99F FOG
HUNTSVILLE     PTSUNNY   77  74  90 CALM      30.01R
CONROE         PTSUNNY   77  75  93 E5        30.01R
HOUSTON BUSH   CLOUDY    78  76  93 E5        30.00R
HOUSTON HOBBY  TSTM      76  74  93 S7        30.00R FOG
PERLAND        CLOUDY    77  73  87 VRB3      30.01R
WHARTON        SUNNY     79  76  91 CALM      30.00R
$$

THE UPPER TEXAS COAST

CITY           SKY/WX    TMP DP  RH WIND       PRES   REMARKS
ORANGE         PTSUNNY   79  79 100 E8        30.03R
PORT ARTHUR    PTSUNNY   79  73  82 E5        30.01R
GALVESTON      CLOUDY    80  75  84 N9        29.99R
ANGLETON       CLOUDY    78  75  90 CALM      29.98R
BAY CITY       SUNNY     79  79  99 CALM      29.98R
$$

TEXAS COASTAL BEND, RIO GRANDE PLAINS DEEP SOUTH TEXAS

CITY           SKY/WX    TMP DP  RH WIND       PRES   REMARKS
VICTORIA       PTSUNNY   76  74  93 E3        29.98R
BEEVILLE       FAIR      71  71 100 SE7       29.94R
ROCKPORT       CLOUDY    80  74  81 S5        29.95R
PORT ARANSAS   CLOUDY    80  76  85 SE7       29.94R
PORT LAVACA    CLOUDY    77  75  94 E3        29.97R
CORPUS CHRISTI CLOUDY    79  75  87 E3        29.93S
KINGSVILLE NAS CLOUDY    80  77  90 E3        29.93R
COTULLA        PTSUNNY   81  74  79 SE16      29.92S
LAREDO         MOSUNNY   82  74  76 SE15      29.92R
BROWNSVILLE    MOSUNNY   86  76  71 S9        29.92R
PORT ISABEL    PTSUNNY   85  76  74 S10       29.91S
HEBBRONVILLE   MOSUNNY   77  74  91 SE9       29.94S
MCALLEN        SUNNY     85  75  72 SE13      29.91R
WESLACO        MOSUNNY   83  75  76 S8        29.90S
FALFURRIAS     MOSUNNY   78  74  87 E3        29.92R
EDINBURG       MOSUNNY   81  76  83 SE6       29.91S
$$



USA.gov is the U.S. government's official web portal to all federal, state and local government web resources and services.